ITY125 LFKJ-LIRN

Flight info

Callsign ITY125
Flight time 0h 57m
Altitude 36000
Route BTA L146 ELB M729 PNZ
Aircraft MD88/M-SDFGIRWY/S

Departure

Time 2026-04-23 14:16
Airport Ajaccio Napoléon Bonaparte airport (LFKJ)

Arrival

Time 2026-04-23 15:13
Airport Naples International Airport (LIRN)
Time Latitude Longitude Altitude Speed Heading
2026-04-23 14:04 41.91848 8.79498 21 ft 0 kts 345°
2026-04-23 14:13 41.91853 8.79497 21 ft 3 kts 352°
2026-04-23 14:13 41.91895 8.79517 21 ft 10 kts 33°
2026-04-23 14:14 41.91954 8.79578 22 ft 10 kts 39°
2026-04-23 14:14 41.92013 8.79643 21 ft 11 kts 40°
2026-04-23 14:14 41.92077 8.79699 21 ft 11 kts 26°
2026-04-23 14:14 41.92159 8.79755 21 ft 14 kts 28°
2026-04-23 14:15 41.92260 8.79826 21 ft 17 kts 27°
2026-04-23 14:15 41.92379 8.79913 21 ft 20 kts 44°
2026-04-23 14:15 41.92401 8.80098 21 ft 21 kts 95°
2026-04-23 14:15 41.92379 8.80226 21 ft 5 kts 161°
2026-04-23 14:16 41.92205 8.80136 21 ft 65 kts 206°
2026-04-23 14:16 41.91557 8.79729 26 ft 136 kts 207°
2026-04-23 14:16 41.90671 8.79157 676 ft 145 kts 207°
2026-04-23 14:16 41.89772 8.78455 1260 ft 162 kts 220°
2026-04-23 14:17 41.88845 8.77508 1911 ft 174 kts 220°
2026-04-23 14:17 41.87793 8.76702 2581 ft 184 kts 187°
2026-04-23 14:17 41.86583 8.77043 3314 ft 185 kts 144°
2026-04-23 14:17 41.85775 8.78407 3878 ft 199 kts 105°
2026-04-23 14:18 41.85759 8.80288 4380 ft 222 kts 71°
2026-04-23 14:18 41.86663 8.82008 5228 ft 236 kts 37°
2026-04-23 14:18 41.88186 8.82864 6118 ft 251 kts 10°
2026-04-23 14:18 41.89951 8.83258 6959 ft 266 kts 11°
2026-04-23 14:19 41.91773 8.83632 8133 ft 268 kts
2026-04-23 14:19 41.93590 8.83936 9244 ft 271 kts
2026-04-23 14:19 41.95447 8.84191 10370 ft 273 kts
2026-04-23 14:19 41.97331 8.84393 11380 ft 277 kts
2026-04-23 14:20 41.99251 8.84547 12414 ft 279 kts
2026-04-23 14:20 42.01181 8.84646 13372 ft 283 kts
2026-04-23 14:20 42.03158 8.84711 14177 ft 290 kts
2026-04-23 14:20 42.05271 8.84800 14211 ft 318 kts
2026-04-23 14:21 42.07554 8.84902 14317 ft 341 kts
2026-04-23 14:21 42.09986 8.84684 14560 ft 358 kts 357°
2026-04-23 14:21 42.12466 8.84394 15259 ft 361 kts 357°
2026-04-23 14:21 42.14981 8.84090 15897 ft 365 kts 357°
2026-04-23 14:22 42.17535 8.83778 16552 ft 368 kts 357°
2026-04-23 14:22 42.20095 8.83463 17145 ft 373 kts 357°
2026-04-23 14:22 42.22657 8.83429 17726 ft 373 kts 11°
2026-04-23 14:22 42.25113 8.84484 18326 ft 374 kts 27°
2026-04-23 14:23 42.27264 8.86456 18863 ft 378 kts 43°
2026-04-23 14:23 42.28925 8.89222 19489 ft 381 kts 58°
2026-04-23 14:23 42.30309 8.92258 19996 ft 385 kts 57°
2026-04-23 14:23 42.31730 8.95314 20549 ft 388 kts 57°
2026-04-23 14:24 42.33176 8.98367 21101 ft 391 kts 56°
2026-04-23 14:24 42.34669 9.01485 21604 ft 394 kts 56°
2026-04-23 14:24 42.36156 9.04566 22170 ft 396 kts 56°
2026-04-23 14:24 42.37670 9.07679 22606 ft 401 kts 56°
2026-04-23 14:25 42.39217 9.10843 23132 ft 403 kts 56°
2026-04-23 14:25 42.40765 9.13997 23634 ft 405 kts 56°
2026-04-23 14:25 42.42311 9.17137 24107 ft 408 kts 56°
2026-04-23 14:25 42.43885 9.20324 24650 ft 409 kts 56°
2026-04-23 14:26 42.45475 9.23541 25125 ft 412 kts 56°
2026-04-23 14:26 42.47080 9.26776 25586 ft 414 kts 55°
2026-04-23 14:26 42.48667 9.29974 26379 ft 408 kts 55°
2026-04-23 14:26 42.50245 9.33147 26907 ft 408 kts 55°
2026-04-23 14:27 42.51817 9.36307 27524 ft 406 kts 55°
2026-04-23 14:27 42.53383 9.39448 28161 ft 403 kts 55°
2026-04-23 14:27 42.54939 9.42573 28803 ft 400 kts 55°
2026-04-23 14:27 42.56466 9.45710 29275 ft 401 kts 59°
2026-04-23 14:28 42.57664 9.49095 29867 ft 399 kts 67°
2026-04-23 14:28 42.58456 9.52665 30424 ft 398 kts 76°
2026-04-23 14:28 42.59047 9.56337 30908 ft 397 kts 75°
2026-04-23 14:28 42.59640 9.59951 31320 ft 397 kts 75°
2026-04-23 14:29 42.60248 9.63600 31697 ft 397 kts 75°
2026-04-23 14:29 42.60864 9.67257 32187 ft 395 kts 75°
2026-04-23 14:29 42.61472 9.70845 32470 ft 398 kts 75°
2026-04-23 14:29 42.62095 9.74493 32971 ft 394 kts 75°
2026-04-23 14:30 42.62706 9.78086 33295 ft 395 kts 75°
2026-04-23 14:30 42.63318 9.81735 33712 ft 394 kts 75°
2026-04-23 14:30 42.63919 9.85318 34104 ft 392 kts 75°
2026-04-23 14:30 42.64534 9.88935 34504 ft 390 kts 75°
2026-04-23 14:31 42.65140 9.92497 34776 ft 391 kts 75°
2026-04-23 14:31 42.65753 9.96113 34983 ft 393 kts 75°
2026-04-23 14:31 42.66357 9.99709 35359 ft 391 kts 75°
2026-04-23 14:31 42.66956 10.03262 35590 ft 392 kts 75°
2026-04-23 14:32 42.67559 10.06861 35751 ft 395 kts 74°
2026-04-23 14:32 42.68178 10.10539 35956 ft 396 kts 74°
2026-04-23 14:32 42.68789 10.14172 36163 ft 398 kts 74°
2026-04-23 14:32 42.69405 10.17831 36179 ft 407 kts 74°
2026-04-23 14:33 42.70697 10.25484 36174 ft 424 kts 74°
2026-04-23 14:33 42.72004 10.33318 36166 ft 427 kts 77°
2026-04-23 14:34 42.72101 10.37355 36170 ft 428 kts 93°
2026-04-23 14:34 42.71437 10.41243 36174 ft 432 kts 108°
2026-04-23 14:34 42.69997 10.44877 36178 ft 440 kts 122°
2026-04-23 14:34 42.67927 10.47935 36183 ft 446 kts 131°
2026-04-23 14:35 42.63545 10.53947 36156 ft 448 kts 130°
2026-04-23 14:35 42.59244 10.60016 36159 ft 447 kts 129°
2026-04-23 14:36 42.54987 10.66118 36160 ft 446 kts 129°
2026-04-23 14:36 42.50761 10.72226 36159 ft 447 kts 129°
2026-04-23 14:37 42.46530 10.78371 36150 ft 447 kts 129°
2026-04-23 14:37 42.42278 10.84502 36166 ft 447 kts 129°
2026-04-23 14:38 42.38044 10.90599 36157 ft 447 kts 129°
2026-04-23 14:38 42.33816 10.96702 36152 ft 446 kts 129°
2026-04-23 14:39 42.29592 11.02774 36155 ft 447 kts 129°
2026-04-23 14:39 42.25322 11.08897 36139 ft 447 kts 129°
2026-04-23 14:40 42.21079 11.14978 36139 ft 447 kts 129°
2026-04-23 14:40 42.16822 11.21071 36146 ft 448 kts 129°
2026-04-23 14:41 42.12566 11.27167 36150 ft 448 kts 128°
2026-04-23 14:41 42.08295 11.33293 36138 ft 448 kts 128°
2026-04-23 14:42 42.04062 11.39364 36139 ft 448 kts 129°
2026-04-23 14:42 41.99764 11.45456 36123 ft 449 kts 129°
2026-04-23 14:43 41.95454 11.51548 36124 ft 451 kts 129°
2026-04-23 14:43 41.91163 11.57605 36122 ft 450 kts 128°
2026-04-23 14:44 41.86843 11.63706 36116 ft 451 kts 128°
2026-04-23 14:44 41.82541 11.69780 36125 ft 454 kts 129°
2026-04-23 14:45 41.78199 11.75918 36111 ft 453 kts 129°
2026-04-23 14:45 41.73885 11.82001 36115 ft 454 kts 129°
2026-04-23 14:46 41.69528 11.88135 36119 ft 456 kts 129°
2026-04-23 14:46 41.65137 11.94261 36079 ft 457 kts 129°
2026-04-23 14:47 41.60735 12.00376 36117 ft 460 kts 129°
2026-04-23 14:47 41.56295 12.06539 36133 ft 458 kts 129°
2026-04-23 14:48 41.51897 12.12636 36107 ft 457 kts 129°
2026-04-23 14:48 41.49703 12.15681 35849 ft 455 kts 129°
2026-04-23 14:48 41.47556 12.18662 35427 ft 449 kts 129°
2026-04-23 14:49 41.45396 12.21644 34929 ft 443 kts 129°
2026-04-23 14:49 41.43299 12.24536 34410 ft 437 kts 128°
2026-04-23 14:49 41.41199 12.27421 33790 ft 430 kts 128°
2026-04-23 14:49 41.39133 12.30262 33165 ft 424 kts 128°
2026-04-23 14:50 41.37113 12.33044 32538 ft 418 kts 128°
2026-04-23 14:50 41.35100 12.35807 31928 ft 414 kts 128°
2026-04-23 14:50 41.33119 12.38531 31319 ft 413 kts 128°
2026-04-23 14:50 41.31135 12.41255 30716 ft 413 kts 128°
2026-04-23 14:51 41.29147 12.43989 30058 ft 416 kts 128°
2026-04-23 14:51 41.27131 12.46760 29364 ft 420 kts 128°
2026-04-23 14:51 41.25111 12.49539 28696 ft 423 kts 128°
2026-04-23 14:51 41.23073 12.52341 28033 ft 425 kts 128°
2026-04-23 14:52 41.21024 12.55163 27506 ft 426 kts 128°
2026-04-23 14:52 41.18960 12.57983 26767 ft 427 kts 128°
2026-04-23 14:52 41.16891 12.60799 26028 ft 424 kts 128°
2026-04-23 14:52 41.14870 12.63549 25317 ft 419 kts 128°
2026-04-23 14:53 41.12846 12.66296 24584 ft 413 kts 129°
2026-04-23 14:53 41.10841 12.69016 23876 ft 406 kts 129°
2026-04-23 14:53 41.08889 12.71662 23190 ft 402 kts 129°
2026-04-23 14:53 41.06949 12.74293 22533 ft 398 kts 129°
2026-04-23 14:54 41.05032 12.76891 21892 ft 396 kts 129°
2026-04-23 14:54 41.03131 12.79469 21242 ft 395 kts 129°
2026-04-23 14:54 41.01211 12.82073 20593 ft 394 kts 129°
2026-04-23 14:54 40.99295 12.84675 19956 ft 392 kts 129°
2026-04-23 14:55 40.97419 12.87219 19327 ft 392 kts 129°
2026-04-23 14:55 40.95529 12.89786 18696 ft 390 kts 129°
2026-04-23 14:55 40.93640 12.92346 18051 ft 387 kts 129°
2026-04-23 14:55 40.91880 12.94959 17452 ft 379 kts 122°
2026-04-23 14:56 40.90412 12.97785 16962 ft 370 kts 115°
2026-04-23 14:56 40.89248 13.00783 16318 ft 365 kts 108°
2026-04-23 14:56 40.88245 13.03811 15698 ft 363 kts 109°
2026-04-23 14:56 40.87225 13.06866 15073 ft 361 kts 109°
2026-04-23 14:57 40.86212 13.09867 14462 ft 358 kts 109°
2026-04-23 14:57 40.85204 13.12843 13867 ft 355 kts 109°
2026-04-23 14:57 40.84201 13.15797 13421 ft 349 kts 109°
2026-04-23 14:57 40.83211 13.18656 13044 ft 348 kts 109°
2026-04-23 14:58 40.82220 13.21514 12659 ft 336 kts 110°
2026-04-23 14:58 40.81260 13.24271 12264 ft 323 kts 110°
2026-04-23 14:58 40.80345 13.26897 11894 ft 312 kts 110°
2026-04-23 14:58 40.79453 13.29455 11541 ft 301 kts 110°
2026-04-23 14:59 40.78599 13.31908 11214 ft 291 kts 109°
2026-04-23 14:59 40.77762 13.34311 10885 ft 282 kts 110°
2026-04-23 14:59 40.76958 13.36619 10577 ft 274 kts 109°
2026-04-23 14:59 40.76179 13.38861 10297 ft 271 kts 109°
2026-04-23 15:00 40.75390 13.41133 10032 ft 271 kts 109°
2026-04-23 15:00 40.74603 13.43402 9771 ft 273 kts 109°
2026-04-23 15:00 40.73824 13.45659 9543 ft 274 kts 110°
2026-04-23 15:00 40.72971 13.47916 9164 ft 277 kts 111°
2026-04-23 15:01 40.72103 13.50207 8779 ft 277 kts 111°
2026-04-23 15:01 40.71253 13.52447 8401 ft 274 kts 111°
2026-04-23 15:01 40.70415 13.54652 8030 ft 271 kts 111°
2026-04-23 15:01 40.69572 13.56871 7647 ft 267 kts 111°
2026-04-23 15:02 40.68753 13.59023 7263 ft 265 kts 111°
2026-04-23 15:02 40.67930 13.61192 6883 ft 263 kts 111°
2026-04-23 15:02 40.67113 13.63346 6505 ft 262 kts 111°
2026-04-23 15:02 40.66300 13.65490 6136 ft 260 kts 112°
2026-04-23 15:03 40.65496 13.67611 5765 ft 259 kts 112°
2026-04-23 15:03 40.64705 13.69696 5402 ft 258 kts 112°
2026-04-23 15:03 40.63904 13.71807 5041 ft 256 kts 112°
2026-04-23 15:03 40.63108 13.73905 4681 ft 254 kts 112°
2026-04-23 15:04 40.62545 13.76036 4333 ft 248 kts 99°
2026-04-23 15:04 40.62162 13.78231 4015 ft 244 kts 92°
2026-04-23 15:04 40.62567 13.80285 3921 ft 227 kts 52°
2026-04-23 15:04 40.63475 13.81962 3943 ft 231 kts 54°
2026-04-23 15:05 40.64399 13.83750 3930 ft 235 kts 54°
2026-04-23 15:05 40.65336 13.85507 3926 ft 235 kts 52°
2026-04-23 15:05 40.66286 13.87256 3932 ft 235 kts 52°
2026-04-23 15:05 40.67231 13.89006 3929 ft 235 kts 53°
2026-04-23 15:06 40.68170 13.90748 3923 ft 234 kts 52°
2026-04-23 15:06 40.69114 13.92499 3924 ft 234 kts 52°
2026-04-23 15:06 40.70060 13.94252 3925 ft 233 kts 52°
2026-04-23 15:06 40.70982 13.95963 3920 ft 230 kts 52°
2026-04-23 15:07 40.71919 13.97700 3920 ft 232 kts 52°
2026-04-23 15:07 40.72841 13.99414 3912 ft 232 kts 52°
2026-04-23 15:07 40.73775 14.01149 3929 ft 233 kts 52°
2026-04-23 15:07 40.74719 14.02899 3925 ft 233 kts 52°
2026-04-23 15:08 40.75653 14.04636 3926 ft 233 kts 52°
2026-04-23 15:08 40.76599 14.06396 3919 ft 233 kts 53°
2026-04-23 15:08 40.77530 14.08134 3919 ft 230 kts 52°
2026-04-23 15:09 40.79176 14.11203 3844 ft 185 kts 52°
2026-04-23 15:09 40.79901 14.12554 3539 ft 177 kts 52°
2026-04-23 15:09 40.80589 14.13837 3251 ft 170 kts 51°
2026-04-23 15:09 40.81263 14.15093 2980 ft 164 kts 51°
2026-04-23 15:10 40.81910 14.16299 2720 ft 158 kts 52°
2026-04-23 15:10 40.82518 14.17436 2482 ft 144 kts 52°
2026-04-23 15:10 40.83058 14.18445 2260 ft 127 kts 52°
2026-04-23 15:10 40.83552 14.19371 2044 ft 121 kts 50°
2026-04-23 15:11 40.84038 14.20277 1891 ft 122 kts 51°
2026-04-23 15:11 40.84524 14.21182 1705 ft 119 kts 53°
2026-04-23 15:11 40.84992 14.22062 1516 ft 116 kts 53°
2026-04-23 15:11 40.85459 14.22928 1350 ft 114 kts 52°
2026-04-23 15:12 40.85923 14.23807 1204 ft 117 kts 50°
2026-04-23 15:12 40.86402 14.24691 1064 ft 117 kts 53°
2026-04-23 15:12 40.86897 14.25557 890 ft 119 kts 52°
2026-04-23 15:12 40.87368 14.26471 706 ft 120 kts 56°
2026-04-23 15:13 40.87805 14.27406 461 ft 121 kts 52°
2026-04-23 15:13 40.88258 14.28341 293 ft 119 kts 58°
2026-04-23 15:13 40.88632 14.29136 255 ft 71 kts 58°
2026-04-23 15:13 40.88755 14.29462 251 ft 20 kts 114°
2026-04-23 15:14 40.88641 14.29573 250 ft 18 kts 165°
2026-04-23 15:14 40.88569 14.29516 253 ft 11 kts 234°
2026-04-23 15:14 40.88516 14.29420 254 ft 15 kts 234°
2026-04-23 15:14 40.88443 14.29294 256 ft 19 kts 232°
2026-04-23 15:15 40.88359 14.29145 261 ft 21 kts 234°
2026-04-23 15:15 40.88266 14.28985 269 ft 22 kts 231°
2026-04-23 15:15 40.88171 14.28814 277 ft 23 kts 236°
2026-04-23 15:15 40.88067 14.28642 284 ft 24 kts 230°
2026-04-23 15:16 40.87953 14.28464 291 ft 25 kts 249°
2026-04-23 15:16 40.87949 14.28252 289 ft 13 kts 228°
2026-04-23 15:16 40.87901 14.28231 290 ft 0 kts 187°